weather.gov     
National Weather Service

Terminal Aerodrome Forecast
NWS Homepage
This page is being discontinued on March 12, 2014.
The same data is available at this site. Please update your bookmarks.
Thank you, and we apologize for the inconvenience.
Please send an email to SR-SRH.Webmaster@noaa.gov with any concerns.


Current Version
Previous Version:    01  02  03  04  05  06  07  08  09  10  11  12  13  14  15  16  17  
[Printable]
247
FTUS42 KGSP 302335
TAFGSP
TAF
KGSP 302335Z 3100/3124 00000KT P6SM SCT250
     FM311200 03004KT P6SM FEW050 BKN250
     FM311800 25006KT P6SM SCT050 BKN130=




247
FTUS42 KGSP 302335
TAFGSP
TAF
KGSP 302335Z 3100/3124 00000KT P6SM SCT250
     FM311200 03004KT P6SM FEW050 BKN250
     FM311800 25006KT P6SM SCT050 BKN130=


U.S. Dept. of Commerce
NOAA National Weather Service
1325 East West Highway
Silver Spring, MD 20910
E-mail: w-nws.webmaster@noaa.gov
Page last modified: May 16, 2007
NATIONAL WEATHER SERVICE: for Safety, for Work, for Fun - FOR LIFE